Year,Month,Day,Hour,Minute,Value (Times are PST for windgust in km/hr)
2018,06,30,00,00,32.20
2018,06,30,00,01,32.20
2018,06,30,00,02,33.80
2018,06,30,00,03,30.60
2018,06,30,00,04,32.20
2018,06,30,00,05,33.80
2018,06,30,00,06,32.20
2018,06,30,00,07,35.40
2018,06,30,00,08,35.40
2018,06,30,00,09,32.20
2018,06,30,00,10,30.60
2018,06,30,00,11,32.20
2018,06,30,00,12,30.60
2018,06,30,00,13,32.20
2018,06,30,00,14,33.80
2018,06,30,00,15,32.20
2018,06,30,00,16,30.60
2018,06,30,00,17,30.60
2018,06,30,00,18,32.20
2018,06,30,00,19,30.60
2018,06,30,00,20,33.80
2018,06,30,00,21,32.20
2018,06,30,00,22,33.80
2018,06,30,00,23,32.20
2018,06,30,00,24,32.20
2018,06,30,00,25,32.20
2018,06,30,00,26,32.20
2018,06,30,00,27,30.60
2018,06,30,00,28,32.20
2018,06,30,00,29,30.60
2018,06,30,00,30,32.20
2018,06,30,00,31,32.20
2018,06,30,00,32,33.80
2018,06,30,00,33,33.80
2018,06,30,00,34,33.80
2018,06,30,00,35,30.60
2018,06,30,00,36,30.60
2018,06,30,00,37,30.60
2018,06,30,00,38,30.60
2018,06,30,00,39,32.20
2018,06,30,00,40,30.60
2018,06,30,00,41,32.20
2018,06,30,00,42,32.20
2018,06,30,00,43,32.20
2018,06,30,00,44,32.20
2018,06,30,00,45,32.20
2018,06,30,00,46,32.20
2018,06,30,00,47,32.20
2018,06,30,00,48,32.20
2018,06,30,00,49,32.20
2018,06,30,00,50,32.20
2018,06,30,00,51,32.20
2018,06,30,00,52,32.20
2018,06,30,00,53,32.20
2018,06,30,00,54,30.60
2018,06,30,00,55,32.20
2018,06,30,00,56,32.20
2018,06,30,00,57,32.20
2018,06,30,00,58,32.20
2018,06,30,00,59,33.80
2018,06,30,01,00,32.20
2018,06,30,01,01,32.20
2018,06,30,01,02,32.20
2018,06,30,01,03,32.20
2018,06,30,01,04,32.20
2018,06,30,01,05,30.60
2018,06,30,01,06,32.20
2018,06,30,01,07,32.20
2018,06,30,01,08,30.60
2018,06,30,01,09,32.20
2018,06,30,01,10,32.20
2018,06,30,01,11,32.20
2018,06,30,01,12,32.20
2018,06,30,01,13,32.20
2018,06,30,01,14,30.60
2018,06,30,01,15,32.20
2018,06,30,01,16,32.20
2018,06,30,01,17,32.20
2018,06,30,01,18,32.20
2018,06,30,01,19,32.20
2018,06,30,01,20,30.60
2018,06,30,01,21,30.60
2018,06,30,01,22,30.60
2018,06,30,01,23,32.20
2018,06,30,01,24,32.20
2018,06,30,01,25,32.20
2018,06,30,01,26,32.20
2018,06,30,01,27,32.20
2018,06,30,01,28,30.60
2018,06,30,01,29,30.60
2018,06,30,01,30,30.60
2018,06,30,01,31,30.60
2018,06,30,01,32,30.60
2018,06,30,01,33,30.60
2018,06,30,01,34,30.60
2018,06,30,01,35,29.00
2018,06,30,01,36,29.00
2018,06,30,01,37,30.60
2018,06,30,01,38,29.00
2018,06,30,01,39,29.00
2018,06,30,01,40,29.00
2018,06,30,01,41,29.00
2018,06,30,01,42,29.00
2018,06,30,01,43,27.40
2018,06,30,01,44,29.00
2018,06,30,01,45,29.00
2018,06,30,01,46,29.00
2018,06,30,01,47,29.00
2018,06,30,01,48,27.40
2018,06,30,01,49,27.40
2018,06,30,01,50,27.40
2018,06,30,01,51,27.40
2018,06,30,01,52,27.40
2018,06,30,01,53,27.40
2018,06,30,01,54,27.40
2018,06,30,01,55,27.40
2018,06,30,01,56,27.40
2018,06,30,01,57,27.40
2018,06,30,01,58,27.40
2018,06,30,01,59,27.40
2018,06,30,02,00,27.40
2018,06,30,02,01,27.40
2018,06,30,02,02,27.40
2018,06,30,02,03,27.40
2018,06,30,02,04,29.00
2018,06,30,02,05,29.00
2018,06,30,02,06,29.00
2018,06,30,02,07,29.00
2018,06,30,02,08,30.60
2018,06,30,02,09,30.60
2018,06,30,02,10,32.20
2018,06,30,02,11,32.20
2018,06,30,02,12,32.20
2018,06,30,02,13,32.20
2018,06,30,02,14,33.80
2018,06,30,02,15,33.80
2018,06,30,02,16,33.80
2018,06,30,02,17,33.80
2018,06,30,02,18,32.20
2018,06,30,02,19,32.20
2018,06,30,02,20,33.80
2018,06,30,02,21,32.20
2018,06,30,02,22,33.80
2018,06,30,02,23,33.80
2018,06,30,02,24,33.80
2018,06,30,02,25,33.80
2018,06,30,02,26,33.80
2018,06,30,02,27,33.80
2018,06,30,02,28,33.80
2018,06,30,02,29,32.20
2018,06,30,02,30,32.20
2018,06,30,02,31,32.20
2018,06,30,02,32,30.60
2018,06,30,02,33,30.60
2018,06,30,02,34,30.60
2018,06,30,02,35,29.00
2018,06,30,02,36,29.00
2018,06,30,02,37,30.60
2018,06,30,02,38,30.60
2018,06,30,02,39,29.00
2018,06,30,02,40,29.00
2018,06,30,02,41,29.00
2018,06,30,02,42,29.00
2018,06,30,02,43,30.60
2018,06,30,02,44,32.20
2018,06,30,02,45,27.40
2018,06,30,02,46,29.00
2018,06,30,02,47,29.00
2018,06,30,02,48,29.00
2018,06,30,02,49,29.00
2018,06,30,02,50,27.40
2018,06,30,02,51,27.40
2018,06,30,02,52,29.00
2018,06,30,02,53,29.00
2018,06,30,02,54,30.60
2018,06,30,02,55,29.00
2018,06,30,02,56,27.40
2018,06,30,02,57,27.40
2018,06,30,02,58,27.40
2018,06,30,02,59,29.00
2018,06,30,03,00,29.00
2018,06,30,03,01,29.00
2018,06,30,03,02,29.00
2018,06,30,03,03,27.40
2018,06,30,03,06,32.20
2018,06,30,03,07,33.80
2018,06,30,03,08,35.40
2018,06,30,03,09,33.80
2018,06,30,03,10,35.40
2018,06,30,03,11,35.40
2018,06,30,03,12,38.60
2018,06,30,03,13,38.60
2018,06,30,03,14,38.60
2018,06,30,03,15,38.60
2018,06,30,03,16,38.60
2018,06,30,03,17,37.00
2018,06,30,03,18,38.60
2018,06,30,03,19,33.80
2018,06,30,03,20,32.20
2018,06,30,03,21,32.20
2018,06,30,03,22,32.20
2018,06,30,03,23,33.80
2018,06,30,03,24,33.80
2018,06,30,03,25,33.80
2018,06,30,03,26,33.80
2018,06,30,03,27,33.80
2018,06,30,03,28,33.80
2018,06,30,03,29,33.80
2018,06,30,03,30,33.80
2018,06,30,03,31,32.20
2018,06,30,03,32,32.20
2018,06,30,03,33,30.60
2018,06,30,03,34,29.00
2018,06,30,03,35,32.20
2018,06,30,03,36,30.60
2018,06,30,03,37,32.20
2018,06,30,03,38,33.80
2018,06,30,03,39,35.40
2018,06,30,03,40,38.60
2018,06,30,03,41,40.20
2018,06,30,03,42,41.80
2018,06,30,03,43,43.50
2018,06,30,03,44,43.50
2018,06,30,03,45,43.50
2018,06,30,03,46,43.50
2018,06,30,03,47,41.80
2018,06,30,03,48,45.10
2018,06,30,03,49,43.50
2018,06,30,03,50,41.80
2018,06,30,03,51,40.20
2018,06,30,03,52,40.20
2018,06,30,03,53,40.20
2018,06,30,03,54,40.20
2018,06,30,03,55,38.60
2018,06,30,03,56,41.80
2018,06,30,03,57,40.20
2018,06,30,03,58,41.80
2018,06,30,03,59,40.20
2018,06,30,04,00,41.80
2018,06,30,04,01,40.20
2018,06,30,04,02,35.40
2018,06,30,04,03,33.80
2018,06,30,04,04,33.80
2018,06,30,04,05,33.80
2018,06,30,04,06,30.60
2018,06,30,04,07,33.80
2018,06,30,04,08,30.60
2018,06,30,04,09,30.60
2018,06,30,04,10,30.60
2018,06,30,04,11,30.60
2018,06,30,04,12,30.60
2018,06,30,04,13,30.60
2018,06,30,04,14,30.60
2018,06,30,04,15,32.20
2018,06,30,04,16,33.80
2018,06,30,04,17,33.80
2018,06,30,04,18,32.20
2018,06,30,04,19,32.20
2018,06,30,04,20,32.20
2018,06,30,04,21,32.20
2018,06,30,04,22,32.20
2018,06,30,04,23,32.20
2018,06,30,04,24,32.20
2018,06,30,04,25,32.20
2018,06,30,04,26,33.80
2018,06,30,04,27,32.20
2018,06,30,04,28,32.20
2018,06,30,04,29,32.20
2018,06,30,04,30,32.20
2018,06,30,04,31,30.60
2018,06,30,04,32,30.60
2018,06,30,04,33,32.20
2018,06,30,04,34,30.60
2018,06,30,04,35,32.20
2018,06,30,04,36,30.60
2018,06,30,04,37,32.20
2018,06,30,04,38,32.20
2018,06,30,04,39,32.20
2018,06,30,04,40,30.60
2018,06,30,04,41,30.60
2018,06,30,04,42,32.20
2018,06,30,04,43,32.20
2018,06,30,04,44,32.20
2018,06,30,04,45,30.60
2018,06,30,04,46,30.60
2018,06,30,04,47,30.60
2018,06,30,04,48,30.60
2018,06,30,04,49,30.60
2018,06,30,04,50,30.60
2018,06,30,04,51,30.60
2018,06,30,04,52,30.60
2018,06,30,04,53,30.60
2018,06,30,04,54,30.60
2018,06,30,04,55,30.60
2018,06,30,04,56,29.00
2018,06,30,04,57,29.00
2018,06,30,04,58,29.00
2018,06,30,04,59,30.60
2018,06,30,05,00,30.60
2018,06,30,05,01,33.80
2018,06,30,05,02,35.40
2018,06,30,05,03,40.20
2018,06,30,05,04,38.60
2018,06,30,05,05,38.60
2018,06,30,05,06,40.20
2018,06,30,05,07,37.00
2018,06,30,05,08,33.80
2018,06,30,05,09,32.20
2018,06,30,05,10,32.20
2018,06,30,05,11,33.80
2018,06,30,05,12,32.20
2018,06,30,05,13,33.80
2018,06,30,05,14,33.80
2018,06,30,05,15,35.40
2018,06,30,05,16,37.00
2018,06,30,05,17,37.00
2018,06,30,05,18,37.00
2018,06,30,05,19,38.60
2018,06,30,05,20,37.00
2018,06,30,05,21,37.00
2018,06,30,05,22,37.00
2018,06,30,05,23,40.20
2018,06,30,05,24,45.10
2018,06,30,05,25,46.70
2018,06,30,05,26,41.80
2018,06,30,05,27,41.80
2018,06,30,05,28,43.50
2018,06,30,05,29,48.30
2018,06,30,05,30,46.70
2018,06,30,05,31,45.10
2018,06,30,05,32,41.80
2018,06,30,05,33,40.20
2018,06,30,05,34,37.00
2018,06,30,05,35,40.20
2018,06,30,05,36,38.60
2018,06,30,05,37,37.00
2018,06,30,05,38,38.60
2018,06,30,05,39,37.00
2018,06,30,05,40,35.40
2018,06,30,05,41,37.00
2018,06,30,05,42,35.40
2018,06,30,05,43,38.60
2018,06,30,05,44,35.40
2018,06,30,05,45,37.00
2018,06,30,05,46,35.40
2018,06,30,05,47,37.00
2018,06,30,05,48,35.40
2018,06,30,05,49,35.40
2018,06,30,05,50,35.40
2018,06,30,05,51,38.60
2018,06,30,05,52,37.00
2018,06,30,05,53,35.40
2018,06,30,05,54,35.40
2018,06,30,05,55,35.40
2018,06,30,05,56,35.40
2018,06,30,05,57,35.40
2018,06,30,05,58,33.80
2018,06,30,05,59,32.20
2018,06,30,06,00,33.80
2018,06,30,06,01,32.20
2018,06,30,06,02,32.20
2018,06,30,06,03,30.60
2018,06,30,06,04,32.20
2018,06,30,06,05,32.20
2018,06,30,06,06,32.20
2018,06,30,06,07,32.20
2018,06,30,06,08,32.20
2018,06,30,06,09,30.60
2018,06,30,06,10,30.60
2018,06,30,06,11,30.60
2018,06,30,06,12,30.60
2018,06,30,06,13,32.20
2018,06,30,06,14,35.40
2018,06,30,06,15,33.80
2018,06,30,06,16,35.40
2018,06,30,06,17,37.00
2018,06,30,06,18,37.00
2018,06,30,06,19,33.80
2018,06,30,06,20,32.20
2018,06,30,06,21,33.80
2018,06,30,06,22,33.80
2018,06,30,06,23,35.40
2018,06,30,06,24,33.80
2018,06,30,06,25,35.40
2018,06,30,06,26,35.40
2018,06,30,06,27,37.00
2018,06,30,06,28,37.00
2018,06,30,06,29,37.00
2018,06,30,06,30,35.40
2018,06,30,06,31,35.40
2018,06,30,06,32,33.80
2018,06,30,06,33,30.60
2018,06,30,06,34,29.00
2018,06,30,06,35,30.60
2018,06,30,06,36,32.20
2018,06,30,06,37,30.60
2018,06,30,06,38,29.00
2018,06,30,06,39,27.40
2018,06,30,06,40,27.40
2018,06,30,06,41,27.40
2018,06,30,06,42,25.70
2018,06,30,06,43,20.90
2018,06,30,06,44,22.50
2018,06,30,06,45,22.50
2018,06,30,06,46,27.40
2018,06,30,06,47,27.40
2018,06,30,06,48,29.00
2018,06,30,06,49,27.40
2018,06,30,06,50,27.40
2018,06,30,06,51,27.40
2018,06,30,06,52,27.40
2018,06,30,06,53,27.40
2018,06,30,06,54,27.40
2018,06,30,06,55,27.40
2018,06,30,06,56,29.00
2018,06,30,06,57,25.70
2018,06,30,06,58,24.20
2018,06,30,06,59,22.50
2018,06,30,07,00,22.50
2018,06,30,07,01,20.90
2018,06,30,07,02,19.30
2018,06,30,07,03,20.90
2018,06,30,07,04,20.90
2018,06,30,07,05,20.90
2018,06,30,07,06,20.90
2018,06,30,07,07,24.20
2018,06,30,07,08,22.50
2018,06,30,07,09,24.20
2018,06,30,07,10,24.20
2018,06,30,07,11,22.50
2018,06,30,07,12,20.90
2018,06,30,07,13,20.90
2018,06,30,07,14,20.90
2018,06,30,07,15,22.50
2018,06,30,07,16,22.50
2018,06,30,07,17,25.70
2018,06,30,07,18,29.00
2018,06,30,07,19,30.60
2018,06,30,07,20,29.00
2018,06,30,07,21,29.00
2018,06,30,07,22,29.00
2018,06,30,07,23,30.60
2018,06,30,07,24,29.00
2018,06,30,07,25,27.40
2018,06,30,07,26,27.40
2018,06,30,07,27,24.20
2018,06,30,07,28,24.20
2018,06,30,07,29,25.70
2018,06,30,07,30,25.70
2018,06,30,07,31,27.40
2018,06,30,07,32,27.40
2018,06,30,07,33,29.00
2018,06,30,07,34,29.00
2018,06,30,07,35,29.00
2018,06,30,07,36,25.70
2018,06,30,07,37,25.70
2018,06,30,07,38,27.40
2018,06,30,07,39,27.40
2018,06,30,07,40,27.40
2018,06,30,07,41,27.40
2018,06,30,07,42,24.20
2018,06,30,07,43,24.20
2018,06,30,07,44,27.40
2018,06,30,07,45,25.70
2018,06,30,07,46,27.40
2018,06,30,07,47,25.70
2018,06,30,07,48,24.20
2018,06,30,07,49,25.70
2018,06,30,07,50,24.20
2018,06,30,07,51,22.50
2018,06,30,07,52,24.20
2018,06,30,07,53,22.50
2018,06,30,07,54,22.50
2018,06,30,07,55,20.90
2018,06,30,07,56,20.90
2018,06,30,07,57,19.30
2018,06,30,07,58,22.50
2018,06,30,07,59,22.50
2018,06,30,08,00,24.20
2018,06,30,08,01,24.20
2018,06,30,08,02,27.40
2018,06,30,08,03,27.40
2018,06,30,08,04,27.40
2018,06,30,08,05,25.70
2018,06,30,08,06,27.40
2018,06,30,08,07,27.40
2018,06,30,08,08,25.70
2018,06,30,08,09,25.70
2018,06,30,08,10,24.20
2018,06,30,08,11,24.20
2018,06,30,08,12,29.00
2018,06,30,08,13,29.00
2018,06,30,08,14,30.60
2018,06,30,08,15,30.60
2018,06,30,08,16,29.00
2018,06,30,08,17,27.40
2018,06,30,08,18,24.20
2018,06,30,08,19,24.20
2018,06,30,08,20,24.20
2018,06,30,08,21,24.20
2018,06,30,08,22,32.20
2018,06,30,08,23,29.00
2018,06,30,08,24,29.00
2018,06,30,08,25,29.00
2018,06,30,08,26,48.30
2018,06,30,08,27,48.30
2018,06,30,08,28,45.10
2018,06,30,08,29,43.50
2018,06,30,08,30,43.50
2018,06,30,08,31,45.10
2018,06,30,08,32,43.50
2018,06,30,08,33,41.80
2018,06,30,08,34,40.20
2018,06,30,08,35,37.00
2018,06,30,08,36,35.40
2018,06,30,08,37,33.80
2018,06,30,08,38,32.20
2018,06,30,08,39,30.60
2018,06,30,08,40,29.00
2018,06,30,08,41,30.60
2018,06,30,08,42,33.80
2018,06,30,08,43,35.40
2018,06,30,08,44,38.60
2018,06,30,08,45,40.20
2018,06,30,08,46,43.50
2018,06,30,08,47,43.50
2018,06,30,08,48,43.50
2018,06,30,08,49,41.80
2018,06,30,08,50,41.80
2018,06,30,08,51,40.20
2018,06,30,08,52,41.80
2018,06,30,08,53,40.20
2018,06,30,08,54,40.20
2018,06,30,08,55,40.20
2018,06,30,08,56,40.20
2018,06,30,08,57,38.60
2018,06,30,08,58,38.60
2018,06,30,08,59,37.00
2018,06,30,09,00,37.00
2018,06,30,09,01,37.00
2018,06,30,09,02,37.00
2018,06,30,09,03,35.40
2018,06,30,09,04,35.40
2018,06,30,09,05,33.80
2018,06,30,09,06,32.20
2018,06,30,09,07,32.20
2018,06,30,09,08,30.60
2018,06,30,09,09,30.60
2018,06,30,09,10,29.00
2018,06,30,09,11,30.60
2018,06,30,09,12,30.60
2018,06,30,09,13,30.60
2018,06,30,09,14,35.40
2018,06,30,09,15,35.40
2018,06,30,09,16,35.40
2018,06,30,09,17,32.20
2018,06,30,09,18,32.20
2018,06,30,09,19,30.60
2018,06,30,09,20,35.40
2018,06,30,09,21,40.20
2018,06,30,09,22,35.40
2018,06,30,09,23,38.60
2018,06,30,09,24,43.50
2018,06,30,09,25,37.00
2018,06,30,09,26,35.40
2018,06,30,09,27,40.20
2018,06,30,09,28,32.20
2018,06,30,09,29,30.60
2018,06,30,09,30,30.60
2018,06,30,09,31,27.40
2018,06,30,09,32,25.70
2018,06,30,09,33,24.20
2018,06,30,09,34,27.40
2018,06,30,09,35,24.20
2018,06,30,09,36,25.70
2018,06,30,09,37,27.40
2018,06,30,09,38,25.70
2018,06,30,09,39,25.70
2018,06,30,09,40,25.70
2018,06,30,09,41,29.00
2018,06,30,09,42,25.70
2018,06,30,09,43,25.70
2018,06,30,09,44,25.70
2018,06,30,09,45,29.00
2018,06,30,09,46,25.70
2018,06,30,09,47,25.70
2018,06,30,09,48,27.40
2018,06,30,09,49,25.70
2018,06,30,09,50,25.70
2018,06,30,09,51,27.40
2018,06,30,09,52,27.40
2018,06,30,09,53,27.40
2018,06,30,09,54,27.40
2018,06,30,09,55,27.40
2018,06,30,09,56,25.70
2018,06,30,09,57,25.70
2018,06,30,09,58,24.20
2018,06,30,09,59,24.20
2018,06,30,10,00,22.50
2018,06,30,10,01,20.90
2018,06,30,10,02,20.90
2018,06,30,10,03,19.30
2018,06,30,10,04,19.30
2018,06,30,10,05,19.30
2018,06,30,10,06,17.70
2018,06,30,10,07,17.70
2018,06,30,10,08,19.30
2018,06,30,10,09,17.70
2018,06,30,10,10,19.30
2018,06,30,10,11,17.70
2018,06,30,10,12,17.70
2018,06,30,10,13,17.70
2018,06,30,10,14,17.70
2018,06,30,10,15,17.70
2018,06,30,10,16,17.70
2018,06,30,10,17,19.30
2018,06,30,10,18,17.70
2018,06,30,10,19,17.70
2018,06,30,10,20,17.70
2018,06,30,10,21,19.30
2018,06,30,10,22,17.70
2018,06,30,10,23,19.30
2018,06,30,10,24,19.30
2018,06,30,10,25,19.30
2018,06,30,10,26,19.30
2018,06,30,10,27,19.30
2018,06,30,10,28,19.30
2018,06,30,10,29,19.30
2018,06,30,10,30,17.70
2018,06,30,10,31,19.30
2018,06,30,10,32,19.30
2018,06,30,10,33,19.30
2018,06,30,10,34,19.30
2018,06,30,10,35,19.30
2018,06,30,10,36,19.30
2018,06,30,10,37,19.30
2018,06,30,10,38,17.70
2018,06,30,10,39,17.70
2018,06,30,10,40,19.30
2018,06,30,10,41,22.50
2018,06,30,10,42,22.50
2018,06,30,10,43,22.50
2018,06,30,10,44,22.50
2018,06,30,10,45,22.50
2018,06,30,10,46,22.50
2018,06,30,10,47,22.50
2018,06,30,10,48,24.20
2018,06,30,10,49,22.50
2018,06,30,10,50,22.50
2018,06,30,10,51,20.90
2018,06,30,10,52,20.90
2018,06,30,10,53,19.30
2018,06,30,10,54,20.90
2018,06,30,10,55,20.90
2018,06,30,10,56,24.20
2018,06,30,10,57,24.20
2018,06,30,10,58,22.50
2018,06,30,10,59,22.50
2018,06,30,11,00,22.50
2018,06,30,11,01,22.50
2018,06,30,11,02,20.90
2018,06,30,11,03,20.90
2018,06,30,11,04,22.50
2018,06,30,11,05,24.20
2018,06,30,11,06,22.50
2018,06,30,11,07,24.20
2018,06,30,11,08,25.70
2018,06,30,11,09,24.20
2018,06,30,11,10,25.70
2018,06,30,11,11,27.40
2018,06,30,11,12,25.70
2018,06,30,11,13,27.40
2018,06,30,11,14,27.40
2018,06,30,11,15,27.40
2018,06,30,11,16,25.70
2018,06,30,11,17,29.00
2018,06,30,11,18,29.00
2018,06,30,11,19,27.40
2018,06,30,11,20,29.00
2018,06,30,11,21,27.40
2018,06,30,11,22,27.40
2018,06,30,11,23,25.70
2018,06,30,11,24,25.70
2018,06,30,11,25,25.70
2018,06,30,11,26,27.40
2018,06,30,11,27,24.20
2018,06,30,11,28,25.70
2018,06,30,11,29,27.40
2018,06,30,11,30,27.40
2018,06,30,11,31,25.70
2018,06,30,11,32,25.70
2018,06,30,11,33,25.70
2018,06,30,11,34,25.70
2018,06,30,11,35,25.70
2018,06,30,11,36,24.20
2018,06,30,11,37,25.70
2018,06,30,11,38,25.70
2018,06,30,11,39,25.70
2018,06,30,11,40,24.20
2018,06,30,11,41,24.20
2018,06,30,11,42,24.20
2018,06,30,11,43,25.70
2018,06,30,11,44,24.20
2018,06,30,11,45,24.20
2018,06,30,11,46,25.70
2018,06,30,11,47,24.20
2018,06,30,11,48,24.20
2018,06,30,11,49,25.70
2018,06,30,11,50,24.20
2018,06,30,11,51,25.70
2018,06,30,11,52,25.70
2018,06,30,11,53,27.40
2018,06,30,11,54,25.70
2018,06,30,11,55,25.70
2018,06,30,11,56,25.70
2018,06,30,11,57,25.70
2018,06,30,11,58,25.70
2018,06,30,11,59,25.70
2018,06,30,12,00,25.70
2018,06,30,12,01,25.70
2018,06,30,12,02,24.20
2018,06,30,12,03,25.70
2018,06,30,12,04,25.70
2018,06,30,12,05,25.70
2018,06,30,12,06,25.70
2018,06,30,12,07,25.70
2018,06,30,12,08,25.70
2018,06,30,12,09,25.70
2018,06,30,12,10,25.70
2018,06,30,12,11,27.40
2018,06,30,12,12,25.70
2018,06,30,12,13,25.70
2018,06,30,12,14,27.40
2018,06,30,12,15,27.40
2018,06,30,12,16,25.70
2018,06,30,12,17,25.70
2018,06,30,12,18,25.70
2018,06,30,12,19,25.70
2018,06,30,12,20,25.70
2018,06,30,12,21,27.40
2018,06,30,12,22,27.40
2018,06,30,12,23,27.40
2018,06,30,12,24,27.40
2018,06,30,12,25,27.40
2018,06,30,12,26,27.40
2018,06,30,12,27,27.40
2018,06,30,12,28,24.20
2018,06,30,12,29,25.70
2018,06,30,12,30,25.70
2018,06,30,12,31,25.70
2018,06,30,12,32,25.70
2018,06,30,12,33,25.70
2018,06,30,12,34,24.20
2018,06,30,12,35,24.20
2018,06,30,12,36,25.70
2018,06,30,12,37,25.70
2018,06,30,12,38,25.70
2018,06,30,12,39,25.70
2018,06,30,12,40,27.40
2018,06,30,12,41,27.40
2018,06,30,12,42,27.40
2018,06,30,12,43,27.40
2018,06,30,12,44,25.70
2018,06,30,12,45,25.70
2018,06,30,12,46,25.70
2018,06,30,12,47,25.70
2018,06,30,12,48,25.70
2018,06,30,12,49,25.70
2018,06,30,12,50,25.70
2018,06,30,12,51,25.70
2018,06,30,12,52,25.70
2018,06,30,12,53,24.20
2018,06,30,12,54,25.70
2018,06,30,12,55,25.70
2018,06,30,12,56,25.70
2018,06,30,12,57,25.70
2018,06,30,12,58,25.70
2018,06,30,12,59,27.40
2018,06,30,13,00,25.70
2018,06,30,13,01,27.40
2018,06,30,13,02,27.40
2018,06,30,13,03,27.40
2018,06,30,13,04,25.70
2018,06,30,13,05,24.20
2018,06,30,13,06,24.20
2018,06,30,13,07,24.20
2018,06,30,13,08,24.20
2018,06,30,13,09,24.20
2018,06,30,13,10,24.20
2018,06,30,13,11,24.20
2018,06,30,13,12,22.50
2018,06,30,13,13,22.50
2018,06,30,13,14,25.70
2018,06,30,13,15,24.20
2018,06,30,13,16,24.20
2018,06,30,13,17,24.20
2018,06,30,13,18,22.50
2018,06,30,13,19,22.50
2018,06,30,13,20,24.20
2018,06,30,13,21,25.70
2018,06,30,13,22,24.20
2018,06,30,13,23,24.20
2018,06,30,13,24,22.50
2018,06,30,13,25,24.20
2018,06,30,13,26,22.50
2018,06,30,13,27,24.20
2018,06,30,13,28,24.20
2018,06,30,13,29,22.50
2018,06,30,13,30,22.50
2018,06,30,13,31,22.50
2018,06,30,13,32,24.20
2018,06,30,13,33,22.50
2018,06,30,13,34,22.50
2018,06,30,13,35,22.50
2018,06,30,13,36,22.50
2018,06,30,13,37,22.50
2018,06,30,13,38,24.20
2018,06,30,13,39,22.50
2018,06,30,13,40,22.50
2018,06,30,13,41,20.90
2018,06,30,13,42,20.90
2018,06,30,13,43,24.20
2018,06,30,13,44,22.50
2018,06,30,13,45,20.90
2018,06,30,13,46,20.90
2018,06,30,13,47,19.30
2018,06,30,13,48,19.30
2018,06,30,13,49,19.30
2018,06,30,13,50,19.30
2018,06,30,13,51,19.30
2018,06,30,13,52,20.90
2018,06,30,13,53,19.30
2018,06,30,13,54,19.30
2018,06,30,13,55,20.90
2018,06,30,13,56,19.30
2018,06,30,13,57,20.90
2018,06,30,13,58,17.70
2018,06,30,13,59,19.30
2018,06,30,14,00,22.50
2018,06,30,14,01,20.90
2018,06,30,14,02,20.90
2018,06,30,14,03,20.90
2018,06,30,14,04,17.70
2018,06,30,14,05,19.30
2018,06,30,14,06,20.90
2018,06,30,14,07,22.50
2018,06,30,14,08,19.30
2018,06,30,14,09,19.30
2018,06,30,14,10,17.70
2018,06,30,14,11,20.90
2018,06,30,14,12,22.50
2018,06,30,14,13,19.30
2018,06,30,14,14,19.30
2018,06,30,14,15,17.70
2018,06,30,14,16,20.90
2018,06,30,14,17,22.50
2018,06,30,14,18,20.90
2018,06,30,14,19,22.50
2018,06,30,14,20,20.90
2018,06,30,14,21,19.30
2018,06,30,14,22,19.30
2018,06,30,14,23,20.90
2018,06,30,14,24,20.90
2018,06,30,14,25,22.50
2018,06,30,14,26,22.50
2018,06,30,14,27,20.90
2018,06,30,14,28,20.90
2018,06,30,14,29,22.50
2018,06,30,14,30,24.20
2018,06,30,14,31,25.70
2018,06,30,14,32,24.20
2018,06,30,14,33,24.20
2018,06,30,14,34,24.20
2018,06,30,14,35,27.40
2018,06,30,14,36,29.00
2018,06,30,14,37,25.70
2018,06,30,14,38,27.40
2018,06,30,14,39,27.40
2018,06,30,14,40,25.70
2018,06,30,14,41,29.00
2018,06,30,14,42,30.60
2018,06,30,14,43,30.60
2018,06,30,14,44,29.00
2018,06,30,14,45,29.00
2018,06,30,14,46,30.60
2018,06,30,14,49,29.00
2018,06,30,14,50,27.40
2018,06,30,14,51,27.40
2018,06,30,14,52,30.60
2018,06,30,14,53,29.00
2018,06,30,14,54,29.00
2018,06,30,14,55,25.70
2018,06,30,14,56,24.20
2018,06,30,14,57,24.20
2018,06,30,14,58,25.70
2018,06,30,14,59,24.20
2018,06,30,15,00,27.40
2018,06,30,15,01,25.70
2018,06,30,15,02,25.70
2018,06,30,15,03,27.40
2018,06,30,15,04,29.00
2018,06,30,15,05,27.40
2018,06,30,15,06,27.40
2018,06,30,15,07,25.70
2018,06,30,15,08,25.70
2018,06,30,15,09,25.70
2018,06,30,15,10,27.40
2018,06,30,15,11,27.40
2018,06,30,15,12,29.00
2018,06,30,15,13,29.00
2018,06,30,15,14,30.60
2018,06,30,15,15,30.60
2018,06,30,15,16,30.60
2018,06,30,15,17,32.20
2018,06,30,15,18,32.20
2018,06,30,15,19,27.40
2018,06,30,15,20,27.40
2018,06,30,15,21,27.40
2018,06,30,15,22,27.40
2018,06,30,15,23,29.00
2018,06,30,15,24,27.40
2018,06,30,15,25,27.40
2018,06,30,15,26,25.70
2018,06,30,15,27,27.40
2018,06,30,15,28,27.40
2018,06,30,15,29,29.00
2018,06,30,15,30,29.00
2018,06,30,15,31,27.40
2018,06,30,15,32,27.40
2018,06,30,15,33,27.40
2018,06,30,15,34,27.40
2018,06,30,15,35,27.40
2018,06,30,15,36,29.00
2018,06,30,15,37,27.40
2018,06,30,15,38,27.40
2018,06,30,15,39,27.40
2018,06,30,15,40,27.40
2018,06,30,15,41,25.70
2018,06,30,15,42,24.20
2018,06,30,15,43,27.40
2018,06,30,15,44,25.70
2018,06,30,15,45,24.20
2018,06,30,15,46,25.70
2018,06,30,15,47,25.70
2018,06,30,15,48,20.90
2018,06,30,15,49,20.90
2018,06,30,15,50,20.90
2018,06,30,15,51,20.90
2018,06,30,15,52,24.20
2018,06,30,15,53,27.40
2018,06,30,15,54,25.70
2018,06,30,15,55,27.40
2018,06,30,15,56,30.60
2018,06,30,15,57,29.00
2018,06,30,15,58,30.60
2018,06,30,15,59,29.00
2018,06,30,16,00,27.40
2018,06,30,16,01,29.00
2018,06,30,16,02,29.00
2018,06,30,16,03,27.40
2018,06,30,16,04,29.00
2018,06,30,16,05,29.00
2018,06,30,16,06,27.40
2018,06,30,16,07,30.60
2018,06,30,16,08,30.60
2018,06,30,16,09,30.60
2018,06,30,16,10,32.20
2018,06,30,16,11,33.80
2018,06,30,16,12,33.80
2018,06,30,16,13,32.20
2018,06,30,16,14,30.60
2018,06,30,16,15,32.20
2018,06,30,16,16,33.80
2018,06,30,16,17,35.40
2018,06,30,16,18,29.00
2018,06,30,16,19,32.20
2018,06,30,16,20,35.40
2018,06,30,16,21,37.00
2018,06,30,16,22,35.40
2018,06,30,16,23,35.40
2018,06,30,16,24,35.40
2018,06,30,16,25,33.80
2018,06,30,16,26,33.80
2018,06,30,16,27,32.20
2018,06,30,16,28,37.00
2018,06,30,16,29,35.40
2018,06,30,16,30,33.80
2018,06,30,16,31,30.60
2018,06,30,16,32,32.20
2018,06,30,16,33,33.80
2018,06,30,16,34,33.80
2018,06,30,16,35,35.40
2018,06,30,16,36,35.40
2018,06,30,16,37,33.80
2018,06,30,16,38,30.60
2018,06,30,16,39,33.80
2018,06,30,16,40,37.00
2018,06,30,16,41,35.40
2018,06,30,16,42,38.60
2018,06,30,16,43,40.20
2018,06,30,16,44,40.20
2018,06,30,16,45,41.80
2018,06,30,16,46,38.60
2018,06,30,16,47,41.80
2018,06,30,16,48,40.20
2018,06,30,16,49,41.80
2018,06,30,16,50,40.20
2018,06,30,16,51,40.20
2018,06,30,16,52,40.20
2018,06,30,16,53,38.60
2018,06,30,16,54,38.60
2018,06,30,16,55,38.60
2018,06,30,16,56,41.80
2018,06,30,16,57,41.80
2018,06,30,16,58,43.50
2018,06,30,16,59,45.10
2018,06,30,17,00,48.30
2018,06,30,17,01,43.50
2018,06,30,17,02,46.70
2018,06,30,17,03,45.10
2018,06,30,17,04,46.70
2018,06,30,17,05,46.70
2018,06,30,17,06,46.70
2018,06,30,17,07,46.70
2018,06,30,17,08,48.30
2018,06,30,17,09,45.10
2018,06,30,17,10,48.30
2018,06,30,17,11,48.30
2018,06,30,17,12,49.90
2018,06,30,17,13,46.70
2018,06,30,17,14,46.70
2018,06,30,17,15,49.90
2018,06,30,17,16,49.90
2018,06,30,17,17,46.70
2018,06,30,17,18,49.90
2018,06,30,17,19,46.70
2018,06,30,17,20,48.30
2018,06,30,17,21,46.70
2018,06,30,17,22,48.30
2018,06,30,17,23,48.30